This demonstration page uses our WeatherBlox Daily Observations layout. Learn more.

Left ArrowRight Arrow

Hourly Observations for October 25, 2015

Temp ( °F °C ) Dew Point ( °F °C ) Humidity (%) Winds ( mph kmh ) Pressure ( in mb ) Visibility ( mi km ) Precip ( " mm )
12:51 am 00:51 Clear 61 16.1 47 8.3 60 60 SE 7 11 30.02 1017 10 16 N/A
1:51 am 01:51 Clear 62 16.7 46 7.8 56 56 ESE 10 17 30.03 1017 10 16 N/A
2:51 am 02:51 Clear 62 16.7 46 7.8 56 56 E 10 17 30.04 1017 10 16 N/A
3:51 am 03:51 Clear 59 15 46 7.8 62 62 SE 7 11 30.05 1018 10 16 N/A
4:51 am 04:51 Clear 58 14.4 46 7.8 65 65 SE 8 13 30.06 1018 10 16 N/A
5:51 am 05:51 Clear 58 14.4 45 7.2 62 62 SE 8 13 30.09 1019 10 16 N/A
6:51 am 06:51 Sunny 59 15 46 7.8 62 62 E 10 17 30.11 1020 10 16 N/A
7:51 am 07:51 Sunny 62 16.7 46 7.8 56 56 E 10 17 30.12 1020 10 16 N/A
8:51 am 08:51 Sunny 66 18.9 45 7.2 47 47 E 14 22 30.12 1020 10 16 N/A
9:51 am 09:51 Sunny 70 21.1 44 6.7 39 39 ESE 16 26 30.10 1019 10 16 N/A
10:51 am 10:51 Sunny 72 22.2 45 7.2 38 38 ESE 13 20 30.08 1019 10 16 N/A
11:51 am 11:51 Sunny 74 23.3 45 7.2 36 36 SE 12 19 30.05 1018 10 16 N/A
12:51 pm 12:51 Sunny 76 24.4 46 7.8 35 35 SE 14 22 30.01 1016 10 16 N/A
1:51 pm 13:51 Sunny 77 25 45 7.2 32 32 ESE 12 19 29.97 1015 10 16 N/A
2:51 pm 14:51 Sunny 76 24.4 45 7.2 33 33 SE 13 20 29.96 1015 10 16 N/A
3:51 pm 15:51 Sunny 76 24.4 45 7.2 33 33 E 8 13 29.95 1014 10 16 N/A
4:51 pm 16:51 Sunny 75 23.9 46 7.8 36 36 E 5 7 29.95 1014 10 16 N/A
5:51 pm 17:51 Clear 71 21.7 47 8.3 42 42 ENE 7 11 29.94 1014 10 16 N/A
6:51 pm 18:51 Clear 71 21.7 45 7.2 39 39 E 8 13 29.95 1014 10 16 N/A
7:51 pm 19:51 Clear 71 21.7 44 6.7 38 38 E 9 15 29.95 1014 10 16 N/A
8:51 pm 20:51 Clear 70 21.1 44 6.7 39 39 ESE 5 7 29.94 1014 10 16 N/A
9:51 pm 21:51 Cloudy 65 18.3 47 8.3 52 52 E 8 13 29.95 1014 10 16 N/A
10:51 pm 22:51 Mostly Cloudy 67 19.4 45 7.2 45 45 ESE 8 13 29.94 1014 10 16 N/A
11:51 pm 23:51 Mostly Cloudy 66 18.9 44 6.7 45 45 SE 7 11 29.94 1014 10 16 N/A

Powered by AerisWeather